GW0206 Weather Reports


time (UTC)temp
C
wind
direction
speed
KPH
gust
KPH
rain 1hr
cm
rain 24hr
cm
rain mn
cm
humidity
%
barometer
mb
20260831122015 20 20 0.0 3.2 0.00 0.00 0.00 95 1019.8
20260831121518 20 20 1.6 3.2 0.00 0.00 0.00 95 1019.9
20260831121015 20 20 0.0 3.2 0.00 0.00 0.00 95 1019.9
20260831120516 20 20 0.0 4.8 0.00 0.00 0.00 95 1020.0
20260831120031 20 20 0.0 4.8 0.00 0.00 0.00 95 1019.9
20260831115513 20 360 1.6 4.8 0.00 0.00 0.00 95 1019.9
20260831115010 20 360 1.6 4.8 0.00 0.00 0.00 95 1019.9
20260831114543 20 360 0.0 4.8 0.00 0.00 0.00 95 1019.9
20260831114010 20 5 1.6 4.8 0.00 0.00 0.00 95 1019.9
20260831113514 20 29 0.0 6.4 0.00 0.00 0.00 94 1019.9
20260831113033 20 11 1.6 6.4 0.00 0.00 0.00 94 1019.9
20260831112508 20 22 1.6 4.8 0.00 0.00 0.00 94 1019.9
20260831112012 20 23 1.6 4.8 0.00 0.00 0.00 94 1019.7
20260831111513 20 33 1.6 4.8 0.00 0.00 0.00 94 1019.7
20260831111009 20 13 0.0 6.4 0.00 0.00 0.00 94 1019.6
20260831110510 20 22 1.6 8.0 0.00 0.00 0.00 94 1019.5
20260831110019 20 360 1.6 8.0 0.00 0.00 0.00 94 1019.5
20260831105511 20 13 1.6 6.4 0.00 0.00 0.00 94 1019.4
20260831105008 20 360 1.6 4.8 0.00 0.00 0.00 94 1019.3
20260831104535 20 18 1.6 4.8 0.00 0.00 0.00 94 1019.4
20260831104015 20 9 1.6 4.8 0.00 0.00 0.00 94 1019.3
20260831103514 20 360 0.0 4.8 0.00 0.00 0.00 93 1019.3
20260831103023 20 11 1.6 4.8 0.00 0.00 0.00 93 1019.3
20260831102514 20 22 0.0 4.8 0.00 0.00 0.00 93 1019.3
20260831102018 20 360 1.6 4.8 0.00 0.00 0.00 93 1019.4
20260831101521 20 322 1.6 4.8 0.00 0.00 0.00 93 1019.3
20260831101013 20 328 1.6 4.8 0.00 0.00 0.00 93 1019.2
20260831100516 20 317 1.6 4.8 0.00 0.00 0.00 93 1019.1
20260831100032 20 318 1.6 6.4 0.00 0.00 0.00 93 1019.1
20260831095506 20 341 1.6 6.4 0.00 0.00 0.00 93 1019.1
20260831095013 20 331 1.6 8.0 0.00 0.00 0.00 93 1019.0
20260831094538 20 320 1.6 8.0 0.00 0.00 0.00 93 1019.0
20260831094010 20 298 1.6 6.4 0.00 0.00 0.00 93 1018.9
20260831093511 20 321 0.0 6.4 0.00 0.00 0.00 93 1019.0
20260831093031 20 5 1.6 6.4 0.00 0.00 0.00 93 1019.1
20260831092516 21 306 1.6 8.0 0.00 0.00 0.00 93 1019.1
20260831092005 20 324 3.2 8.0 0.00 0.00 0.00 93 1019.1
20260831091538 21 310 1.6 6.4 0.00 0.00 0.00 92 1019.2
20260831091014 20 306 1.6 6.4 0.00 0.00 0.00 92 1019.2
20260831090518 21 299 1.6 11.3 0.00 0.00 0.00 92 1019.2
20260831090023 20 325 3.2 11.3 0.00 0.00 0.00 92 1019.1
20260831085518 20 323 4.8 8.0 0.00 0.00 0.00 92 1019.2
20260831085016 20 323 1.6 6.4 0.00 0.00 0.00 92 1019.2
20260831084536 21 292 3.2 8.0 0.00 0.00 0.00 92 1019.2
20260831084003 21 308 3.2 8.0 0.00 0.00 0.00 92 1019.2
20260831083504 21 310 4.8 8.0 0.00 0.00 0.00 92 1019.3
20260831083012 21 325 3.2 8.0 0.00 0.00 0.00 92 1019.3
20260831082510 21 309 1.6 8.0 0.00 0.00 0.00 92 1019.2
20260831082006 21 301 3.2 8.0 0.00 0.00 0.00 92 1019.2
20260831081507 21 322 3.2 8.0 0.00 0.00 0.00 92 1019.2
20260831081005 21 314 1.6 8.0 0.00 0.00 0.00 92 1019.2
20260831080504 21 319 3.2 8.0 0.00 0.00 0.00 92 1019.2
20260831080009 21 332 3.2 8.0 0.00 0.00 0.00 92 1019.2
20260831075505 21 314 3.2 11.3 0.00 0.00 0.00 91 1019.2
20260831075006 21 311 6.4 11.3 0.00 0.00 0.00 91 1019.2
20260831074504 21 308 3.2 8.0 0.00 0.00 0.00 91 1019.2
20260831074005 21 305 3.2 8.0 0.00 0.00 0.00 91 1019.1
20260831073506 21 311 3.2 8.0 0.00 0.00 0.00 91 1019.2
20260831073024 21 302 3.2 12.9 0.00 0.00 0.00 91 1019.2
20260831072505 21 289 3.2 12.9 0.00 0.00 0.00 91 1019.2
20260831072004 21 305 3.2 8.0 0.00 0.00 0.00 91 1019.2
20260831071518 21 311 3.2 9.7 0.00 0.00 0.00 91 1019.2
20260831071014 21 306 4.8 12.9 0.00 0.00 0.00 90 1019.2
20260831070503 21 299 4.8 12.9 0.00 0.00 0.00 90 1019.3
20260831070008 21 311 3.2 6.4 0.00 0.00 0.00 90 1019.3
20260831065504 21 316 3.2 6.4 0.00 0.00 0.00 90 1019.4
20260831065004 21 317 1.6 4.8 0.00 0.00 0.00 90 1019.5
20260831064512 21 312 3.2 6.4 0.00 0.00 0.00 90 1019.5
20260831064006 21 311 3.2 8.0 0.00 0.00 0.00 90 1019.5
20260831063507 21 317 1.6 8.0 0.00 0.00 0.00 90 1019.6
20260831063008 21 308 3.2 8.0 0.00 0.00 0.00 90 1019.6
20260831062506 21 323 4.8 8.0 0.00 0.00 0.00 90 1019.8
20260831062008 21 317 3.2 11.3 0.00 0.00 0.00 90 1019.8
20260831061524 21 311 4.8 11.3 0.00 0.00 0.00 90 1019.8
20260831061005 21 304 3.2 8.0 0.00 0.00 0.00 90 1019.8
20260831060507 21 333 3.2 6.4 0.00 0.00 0.00 90 1019.9
20260831060029 21 313 3.2 6.4 0.00 0.00 0.00 90 1020.0
20260831055503 21 291 3.2 6.4 0.00 0.00 0.00 90 1019.9
20260831055012 21 281 3.2 6.4 0.00 0.00 0.00 89 1019.8
20260831054510 21 294 1.6 4.8 0.00 0.00 0.00 89 1019.9
20260831054003 21 305 1.6 4.8 0.00 0.00 0.00 89 1019.9
20260831053503 21 305 1.6 4.8 0.00 0.00 0.00 89 1020.0
20260831053015 21 304 3.2 4.8 0.00 0.00 0.00 89 1020.0
20260831052508 21 296 1.6 6.4 0.00 0.00 0.00 89 1020.0
20260831052007 21 327 0.0 8.0 0.00 0.00 0.00 90 1020.1
20260831051528 21 303 3.2 8.0 0.00 0.00 0.00 90 1019.9
20260831051011 21 331 0.0 6.4 0.00 0.00 0.00 91 1019.9
20260831050510 21 360 1.6 6.4 0.00 0.00 0.00 91 1019.9
20260831050010 21 360 1.6 6.4 0.00 0.00 0.00 91 1020.0
20260831045507 21 317 1.6 6.4 0.00 0.00 0.00 91 1019.8
20260831045016 21 324 1.6 6.4 0.00 0.00 0.00 91 1019.7
20260831044532 21 322 1.6 8.0 0.00 0.00 0.00 91 1019.7
20260831044006 21 302 3.2 8.0 0.00 0.00 0.00 91 1019.8
20260831043510 21 313 3.2 8.0 0.00 0.00 0.00 91 1019.8
20260831043031 21 318 3.2 6.4 0.00 0.00 0.00 91 1019.9
20260831042507 21 317 3.2 6.4 0.00 0.00 0.00 91 1020.0
20260831042007 21 288 1.6 6.4 0.00 0.00 0.00 91 1020.1
20260831041518 21 302 3.2 6.4 0.00 0.00 0.00 91 1020.2
20260831041008 21 289 1.6 4.8 0.00 0.00 0.00 91 1020.2
20260831040504 21 255 1.6 4.8 0.00 0.00 0.00 91 1020.1
20260831040034 21 255 1.6 3.2 0.00 0.00 0.00 91 1020.1
20260831035515 21 255 1.6 3.2 0.00 0.00 0.00 91 1020.1
20260831035013 21 255 0.0 3.2 0.00 0.00 0.00 90 1020.2
20260831034517 21 255 0.0 3.2 0.00 0.00 0.00 90 1020.3
20260831034011 21 255 0.0 3.2 0.00 0.00 0.00 90 1020.3
20260831033515 21 255 1.6 4.8 0.00 0.00 0.00 90 1020.3
20260831033035 21 255 1.6 4.8 0.00 0.00 0.00 90 1020.4
20260831032513 22 281 1.6 4.8 0.00 0.00 0.00 90 1020.3
20260831032014 22 281 1.6 4.8 0.00 0.00 0.00 89 1020.4
20260831031531 22 289 0.0 4.8 0.00 0.00 0.00 89 1020.5
20260831031007 22 286 3.2 6.4 0.00 0.00 0.00 89 1020.5
20260831030506 22 292 3.2 9.7 0.00 0.00 0.00 89 1020.5
20260831030019 22 293 3.2 9.7 0.00 0.00 0.00 89 1020.4
20260831025510 22 289 3.2 9.7 0.00 0.00 0.00 89 1020.5
20260831025010 22 294 3.2 9.7 0.00 0.00 0.00 89 1020.5
20260831024525 22 298 3.2 9.7 0.00 0.00 0.00 88 1020.6
20260831024010 22 276 1.6 9.7 0.00 0.00 0.00 88 1020.7
20260831023516 22 276 3.2 6.4 0.00 0.00 0.00 88 1020.7
20260831023025 22 261 3.2 9.7 0.00 0.00 0.00 88 1020.7
20260831022512 22 261 3.2 9.7 0.00 0.00 0.00 88 1020.7
20260831022016 22 262 3.2 8.0 0.00 0.00 0.00 88 1020.8
20260831021516 22 236 3.2 8.0 0.00 0.00 0.00 88 1020.8
20260831021012 22 244 3.2 6.4 0.00 0.00 0.00 87 1020.8
20260831020516 22 242 3.2 6.4 0.00 0.00 0.00 87 1020.9
20260831020034 22 243 3.2 4.8 0.00 0.00 0.00 87 1020.9
20260831015514 22 248 3.2 6.4 0.00 0.00 0.00 87 1020.9
20260831015009 22 248 3.2 6.4 0.00 0.00 0.00 86 1021.0
20260831014534 22 248 1.6 4.8 0.00 0.00 0.00 86 1021.0
20260831014011 22 241 1.6 4.8 0.00 0.00 0.00 86 1020.9
20260831013514 22 241 1.6 4.8 0.00 0.00 0.00 86 1020.9
20260831013028 22 248 1.6 3.2 0.00 0.00 0.00 86 1020.9
20260831012512 22 242 0.0 3.2 0.00 0.00 0.00 87 1021.0
20260831012008 22 242 0.0 3.2 0.00 0.00 0.00 87 1021.0
20260831011536 22 242 1.6 3.2 0.00 0.00 0.00 86 1021.0
20260831011016 22 242 1.6 3.2 0.00 0.00 0.00 86 1020.9
20260831010518 22 242 1.6 6.4 0.00 0.00 0.00 86 1020.9
20260831010029 22 242 1.6 6.4 0.00 0.00 0.00 86 1020.9
20260831005517 22 231 3.2 6.4 0.00 0.00 0.00 85 1020.7
20260831005018 22 199 1.6 4.8 0.00 0.00 0.00 85 1020.7
20260831004536 22 196 0.0 4.8 0.00 0.00 0.00 85 1020.7
20260831004016 22 196 0.0 3.2 0.00 0.00 0.00 85 1020.7
20260831003512 22 190 0.0 3.2 0.00 0.00 0.00 84 1020.6
20260831003030 23 186 0.0 4.8 0.00 0.00 0.00 84 1020.5
20260831002511 23 198 0.0 4.8 0.00 0.00 0.00 84 1020.6
20260831002014 23 195 0.0 6.4 0.00 0.00 0.00 84 1020.5
20260831001530 23 167 1.6 6.4 0.00 0.00 0.00 83 1020.4
20260831001016 23 117 0.0 1.6 0.00 0.00 0.00 83 1020.4
20260831000514 23 117 0.0 0.0 0.00 0.00 0.00 83 1020.1
20260831000033 23 117 0.0 0.0 0.00 0.00 0.00 83 1020.0
20260830235518 23 117 0.0 0.0 0.00 0.00 0.00 83 1019.9
20260830235018 23 117 0.0 0.0 0.00 0.00 0.00 83 1019.7
20260830234540 23 117 0.0 1.6 0.00 0.00 0.00 82 1019.6
20260830234005 23 117 0.0 1.6 0.00 0.00 0.00 82 1019.5
20260830233506 23 117 0.0 3.2 0.00 0.00 0.00 82 1019.5
20260830233003 23 117 0.0 3.2 0.00 0.00 0.00 82 1019.4
20260830232504 23 117 0.0 0.0 0.00 0.00 0.00 81 1019.3
20260830232003 23 117 0.0 0.0 0.00 0.00 0.00 81 1019.3
20260830231503 23 117 0.0 0.0 0.00 0.00 0.00 80 1019.2
20260830231003 24 117 0.0 0.0 0.00 0.00 0.00 80 1019.2
20260830230505 24 117 0.0 3.2 0.00 0.00 0.00 80 1019.1
20260830230008 24 117 0.0 3.2 0.00 0.00 0.00 80 1019.1
20260830225504 24 117 1.6 6.4 0.00 0.00 0.00 79 1019.1
20260830225003 24 122 1.6 9.7 0.00 0.00 0.00 80 1019.2
20260830224511 24 98 3.2 16.1 0.00 0.00 0.00 79 1019.0
20260830224004 24 307 8.0 16.1 0.00 0.00 0.00 78 1018.4
20260830223503 24 312 6.4 11.3 0.00 0.00 0.00 78 1018.4
20260830223010 24 310 3.2 6.4 0.00 0.00 0.00 77 1018.8
20260830222510 25 320 1.6 4.8 0.00 0.00 0.00 78 1018.9
20260830222002 25 302 1.6 4.8 0.00 0.00 0.00 78 1019.0
20260830221508 25 309 1.6 4.8 0.00 0.00 0.00 77 1019.1
20260830221003 25 302 3.2 4.8 0.00 0.00 0.00 77 1019.1
20260830220503 25 297 1.6 4.8 0.00 0.00 0.00 77 1019.2
20260830220004 25 234 0.0 1.6 0.00 0.00 0.00 78 1019.2
20260830215504 25 234 0.0 3.2 0.00 0.00 0.00 75 1019.2
20260830215002 25 234 0.0 3.2 0.00 0.00 0.00 78 1019.4
20260830214511 25 234 0.0 1.6 0.00 0.00 0.00 80 1019.4
20260830214006 25 242 0.0 3.2 0.00 0.00 0.00 81 1019.3
20260830213507 24 242 0.0 3.2 0.00 0.00 0.00 82 1019.4
20260830213015 24 242 0.0 3.2 0.00 0.00 0.00 81 1019.3
20260830212503 24 242 0.0 4.8 0.00 0.00 0.00 79 1019.2
20260830212003 25 242 1.6 4.8 0.00 0.00 0.00 77 1019.1
20260830211518 25 298 1.6 3.2 0.00 0.00 0.00 77 1019.1
20260830211012 25 298 1.6 3.2 0.00 0.00 0.00 78 1019.1
20260830210502 25 61 0.0 3.2 0.00 0.00 0.00 77 1019.2
20260830210013 25 68 0.0 9.7 0.00 0.00 0.00 78 1019.3
20260830205504 25 55 1.6 9.7 0.00 0.00 0.00 75 1019.4
20260830205003 25 57 3.2 11.3 0.00 0.00 0.00 76 1019.4
20260830204507 25 38 4.8 11.3 0.00 0.00 0.00 74 1019.4
20260830204003 26 17 3.2 8.0 0.00 0.00 0.00 74 1019.5
20260830203503 26 55 3.2 8.0 0.00 0.00 0.00 74 1019.6
20260830203006 26 52 1.6 8.0 0.00 0.00 0.00 74 1019.6
20260830202507 26 33 0.0 4.8 0.00 0.00 0.00 73 1019.7
20260830202007 26 33 1.6 6.4 0.00 0.00 0.00 72 1019.9
20260830201523 26 79 3.2 6.4 0.00 0.00 0.00 72 1019.9
20260830201004 26 52 1.6 6.4 0.00 0.00 0.00 71 1019.9
20260830200508 26 49 3.2 8.0 0.00 0.00 0.00 72 1020.0
20260830200026 26 119 3.2 8.0 0.00 0.00 0.00 71 1020.1
20260830195513 26 80 3.2 6.4 0.00 0.00 0.00 72 1020.2
20260830195004 26 63 0.0 6.4 0.00 0.00 0.00 74 1020.3
20260830194517 26 47 3.2 8.0 0.00 0.00 0.00 72 1020.3
20260830194015 26 55 4.8 8.0 0.00 0.00 0.00 72 1020.4
20260830193503 26 107 0.0 4.8 0.00 0.00 0.00 74 1020.6
20260830193013 26 128 1.6 4.8 0.00 0.00 0.00 73 1020.6
20260830192505 26 119 1.6 4.8 0.00 0.00 0.00 74 1020.7
20260830192004 25 101 0.0 4.8 0.00 0.00 0.00 73 1020.8
20260830191518 26 101 1.6 4.8 0.00 0.00 0.00 72 1020.9
20260830191008 26 128 1.6 4.8 0.00 0.00 0.00 71 1021.0
20260830190509 26 109 0.0 4.8 0.00 0.00 0.00 72 1021.1
20260830190018 26 133 0.0 4.8 0.00 0.00 0.00 71 1021.1
20260830185508 26 130 1.6 4.8 0.00 0.00 0.00 72 1021.2
20260830185011 26 125 0.0 4.8 0.00 0.00 0.00 70 1021.2
20260830184528 26 125 1.6 4.8 0.00 0.00 0.00 71 1021.3
20260830184005 26 97 0.0 6.4 0.00 0.00 0.00 71 1021.3
20260830183509 26 121 0.0 6.4 0.00 0.00 0.00 69 1021.4
20260830183030 26 119 1.6 6.4 0.00 0.00 0.00 70 1021.4
20260830182517 27 125 0.0 4.8 0.00 0.00 0.00 68 1021.4
20260830182005 27 110 0.0 6.4 0.00 0.00 0.00 70 1021.3
20260830181512 27 155 1.6 8.0 0.00 0.00 0.00 69 1021.3
20260830181004 27 64 0.0 8.0 0.00 0.00 0.00 69 1021.3
20260830180503 27 65 1.6 6.4 0.00 0.00 0.00 69 1021.3
20260830180039 27 130 1.6 6.4 0.00 0.00 0.00 67 1021.3
20260830175510 27 88 0.0 11.3 0.00 0.00 0.00 71 1021.4
20260830175009 27 124 3.2 12.9 0.00 0.00 0.00 67 1021.4
20260830174515 27 109 3.2 14.5 0.00 0.00 0.00 71 1021.5
20260830174008 26 67 6.4 14.5 0.00 0.00 0.00 71 1021.5
20260830173511 26 130 1.6 11.3 0.00 0.00 0.00 74 1021.6
20260830173048 26 50 4.8 11.3 0.00 0.00 0.00 73 1021.6
20260830172506 26 67 4.8 11.3 0.00 0.00 0.00 72 1021.8
20260830172013 26 132 1.6 11.3 0.00 0.00 0.00 77 1021.9
20260830171534 26 81 0.0 12.9 0.00 0.00 0.00 76 1021.8
20260830171010 25 120 3.2 12.9 0.00 0.00 0.00 78 1021.9
20260830170511 25 117 3.2 8.0 0.00 0.00 0.00 77 1022.0
20260830170014 25 99 1.6 6.4 0.00 0.00 0.00 80 1022.2
20260830165507 25 142 1.6 6.4 0.00 0.00 0.00 83 1022.2
20260830165008 24 96 0.0 4.8 0.00 0.00 0.00 81 1022.2
20260830164520 24 190 0.0 4.8 0.00 0.00 0.00 81 1022.2
20260830164009 24 126 0.0 4.8 0.00 0.00 0.00 83 1022.3
20260830163512 24 132 0.0 4.8 0.00 0.00 0.00 82 1022.2
20260830163023 23 99 0.0 4.8 0.00 0.00 0.00 83 1022.2
20260830162514 23 99 1.6 4.8 0.00 0.00 0.00 84 1022.1
20260830162018 23 121 1.6 4.8 0.00 0.00 0.00 83 1022.1
20260830161515 23 113 0.0 4.8 0.00 0.00 0.00 82 1022.1
20260830161013 23 49 1.6 4.8 0.00 0.00 0.00 82 1022.0
20260830160513 23 49 0.0 0.0 0.00 0.00 0.00 83 1022.1
20260830160034 23 80 0.0 0.0 0.00 0.00 0.00 83 1022.0
20260830155507 23 80 0.0 4.8 0.00 0.00 0.00 83 1022.0
20260830155012 23 80 0.0 4.8 0.00 0.00 0.00 82 1022.0
20260830154516 23 80 1.6 4.8 0.00 0.00 0.00 81 1022.0
20260830154008 23 103 1.6 4.8 0.00 0.00 0.00 81 1022.1
20260830153511 23 32 1.6 3.2 0.00 0.00 0.00 79 1021.9
20260830153024 23 25 0.0 3.2 0.00 0.00 0.00 80 1021.8
20260830152515 23 43 1.6 4.8 0.00 0.00 0.00 79 1021.9
20260830152009 23 43 0.0 6.4 0.00 0.00 0.00 80 1022.0
20260830151526 23 43 3.2 6.4 0.00 0.00 0.00 78 1022.0
20260830151014 23 49 1.6 4.8 0.00 0.00 0.00 79 1022.1
20260830150515 23 77 1.6 4.8 0.00 0.00 0.00 78 1022.1
20260830150037 23 77 1.6 4.8 0.00 0.00 0.00 79 1022.0
20260830145514 23 77 1.6 4.8 0.00 0.00 0.00 77 1021.9
20260830145017 23 54 1.6 8.0 0.00 0.00 0.00 77 1021.9
20260830144535 23 59 1.6 8.0 0.00 0.00 0.00 75 1021.8
20260830144003 23 57 1.6 6.4 0.00 0.00 0.00 75 1021.7
20260830143503 24 35 1.6 6.4 0.00 0.00 0.00 77 1021.5
20260830143004 23 52 1.6 6.4 0.00 0.00 0.00 74 1021.5
20260830142502 23 50 1.6 6.4 0.00 0.00 0.00 75 1021.4
20260830142002 24 93 1.6 6.4 0.00 0.00 0.00 75 1021.3
20260830141509 24 36 1.6 6.4 0.00 0.00 0.00 74 1021.1
20260830141004 24 53 0.0 8.0 0.00 0.00 0.00 75 1021.0
20260830140503 24 49 1.6 8.0 0.00 0.00 0.00 75 1020.9
20260830140007 24 70 1.6 8.0 0.00 0.00 0.00 74 1020.9
20260830135504 24 13 3.2 8.0 0.00 0.00 0.00 75 1020.9
20260830135002 24 20 3.2 9.7 0.00 0.00 0.00 75 1020.8
20260830134507 23 11 0.0 9.7 0.00 0.00 0.00 77 1020.8
20260830134003 23 5 3.2 8.0 0.00 0.00 0.00 76 1020.9
20260830133501 23 53 1.6 6.4 0.00 0.00 0.00 77 1020.9
20260830133006 22 56 1.6 6.4 0.00 0.00 0.00 79 1020.9
20260830132502 22 30 3.2 6.4 0.00 0.00 0.00 79 1020.9
20260830132004 22 33 1.6 6.4 0.00 0.00 0.00 80 1021.0
20260830131506 21 25 1.6 6.4 0.00 0.00 0.00 81 1020.9
20260830131003 21 36 1.6 6.4 0.00 0.00 0.00 81 1021.0
20260830130503 21 44 1.6 6.4 0.00 0.00 0.00 81 1021.0
20260830130008 20 335 1.6 6.4 0.00 0.00 0.00 83 1020.9
20260830125502 20 42 3.2 8.0 0.00 0.00 0.00 83 1020.9
20260830125002 20 30 3.2 8.0 0.00 0.00 0.00 84 1021.0
20260830124507 19 40 1.6 4.8 0.00 0.00 0.00 85 1021.0
20260830124002 19 39 1.6 6.4 0.00 0.00 0.00 84 1021.1
20260830123505 19 9 1.6 6.4 0.00 0.00 0.00 85 1021.1
20260830123017 18 29 1.6 4.8 0.00 0.00 0.00 85 1021.0
20260830122503 18 43 1.6 4.8 0.00 0.00 0.00 86 1020.9